| time (UTC) | temp C | wind direction | speed KPH | gust KPH | rain 1hr cm | rain 24hr cm | rain mn cm | humidity % | barometer mb |
| 20260509234639 | 30 | 158 | 1.6 | 11.3 | 0.00 | 0.00 | 0.00 | 54 | 1007.7 |
| 20260509233043 | 31 | 191 | 1.6 | 11.3 | 0.00 | 0.00 | 0.00 | 52 | 1007.7 |
| 20260509231550 | 31 | 0 | 0.0 | 4.8 | 0.00 | 0.00 | 0.00 | 50 | 1007.7 |
| 20260509230047 | 31 | 0 | 0.0 | 6.4 | 0.00 | 0.00 | 0.00 | 52 | 1007.6 |
| 20260509224555 | 31 | 0 | 0.0 | 8.0 | 0.00 | 0.00 | 0.00 | 50 | 1007.6 |
| 20260509223051 | 31 | 0 | 0.0 | 4.8 | 0.00 | 0.00 | 0.00 | 50 | 1007.7 |
| 20260509221544 | 31 | 0 | 0.0 | 0.0 | 0.00 | 0.00 | 0.00 | 50 | 1007.6 |
| 20260509220046 | 31 | 162 | 0.0 | 3.2 | 0.00 | 0.00 | 0.00 | 53 | 1007.7 |
| 20260509214556 | 31 | 0 | 1.6 | 11.3 | 0.00 | 0.00 | 0.00 | 52 | 1007.8 |
| 20260509213042 | 30 | 134 | 1.6 | 9.7 | 0.00 | 0.00 | 0.00 | 52 | 1007.9 |
| 20260509211541 | 31 | 129 | 1.6 | 9.7 | 0.00 | 0.00 | 0.00 | 53 | 1008.1 |
| 20260509210051 | 30 | 0 | 0.0 | 11.3 | 0.00 | 0.00 | 0.00 | 56 | 1008.3 |
| 20260509204543 | 29 | 0 | 4.8 | 17.7 | 0.00 | 0.00 | 0.00 | 56 | 1008.6 |
| 20260509203052 | 31 | 213 | 0.0 | 6.4 | 0.00 | 0.00 | 0.00 | 54 | 1008.9 |
| 20260509201541 | 30 | 0 | 1.6 | 9.7 | 0.00 | 0.00 | 0.00 | 55 | 1009.2 |
| 20260509200041 | 30 | 0 | 0.0 | 6.4 | 0.00 | 0.00 | 0.00 | 57 | 1009.5 |
| 20260509194541 | 30 | 103 | 0.0 | 3.2 | 0.00 | 0.00 | 0.00 | 59 | 1009.5 |
| 20260509193047 | 29 | 134 | 0.0 | 14.5 | 0.00 | 0.00 | 0.00 | 60 | 1009.6 |
| 20260509191544 | 28 | 110 | 0.0 | 12.9 | 0.00 | 0.00 | 0.00 | 66 | 1009.6 |
| 20260509190042 | 28 | 116 | 0.0 | 11.3 | 0.00 | 0.00 | 0.00 | 69 | 1009.9 |
| 20260509184547 | 27 | 0 | 0.0 | 11.3 | 0.00 | 0.00 | 0.00 | 69 | 1010.3 |
| 20260509183051 | 27 | 122 | 1.6 | 9.7 | 0.00 | 0.00 | 0.00 | 70 | 1010.3 |
| 20260509181606 | 27 | 0 | 0.0 | 1.6 | 0.00 | 0.00 | 0.00 | 71 | 1010.6 |
| 20260509180110 | 27 | 0 | 0.0 | 4.8 | 0.00 | 0.00 | 0.00 | 71 | 1010.9 |
| 20260509174543 | 27 | 0 | 0.0 | 11.3 | 0.00 | 0.00 | 0.00 | 73 | 1010.8 |
| 20260509173044 | 26 | 0 | 0.0 | 6.4 | 0.00 | 0.00 | 0.00 | 77 | 1010.8 |
| 20260509171553 | 26 | 0 | 4.8 | 210.8 | 0.00 | 0.00 | 0.00 | 74 | 1011.2 |
| 20260509170048 | 26 | 0 | 3.2 | 14.5 | 0.00 | 0.00 | 0.00 | 75 | 1011.5 |
| 20260509164546 | 26 | 298 | 6.4 | 16.1 | 0.00 | 0.00 | 0.00 | 77 | 1011.2 |
| 20260509163045 | 26 | 238 | 8.0 | 16.1 | 0.00 | 0.00 | 0.00 | 77 | 1011.3 |
| 20260509161557 | 26 | 281 | 11.3 | 25.7 | 0.00 | 0.00 | 0.00 | 79 | 1011.4 |
| 20260509160044 | 26 | 253 | 8.0 | 16.1 | 0.00 | 0.00 | 0.00 | 78 | 1011.3 |
| 20260509154542 | 27 | 238 | 11.3 | 20.9 | 0.00 | 0.00 | 0.00 | 78 | 1010.8 |
| 20260509153103 | 27 | 86 | 4.8 | 11.3 | 0.00 | 0.00 | 0.00 | 76 | 1010.4 |
| 20260509151557 | 26 | 195 | 1.6 | 14.5 | 0.00 | 0.00 | 0.00 | 79 | 1010.4 |
| 20260509150049 | 26 | 327 | 8.0 | 17.7 | 0.00 | 0.00 | 0.00 | 79 | 1010.2 |
| 20260509144552 | 25 | 277 | 9.7 | 20.9 | 0.00 | 0.00 | 0.00 | 80 | 1010.2 |
| 20260509143106 | 25 | 359 | 8.0 | 14.5 | 0.00 | 0.00 | 0.00 | 82 | 1010.0 |
| 20260509141550 | 24 | 217 | 1.6 | 11.3 | 0.00 | 0.00 | 0.00 | 85 | 1010.1 |
| 20260509140048 | 23 | 217 | 3.2 | 12.9 | 0.00 | 0.00 | 0.00 | 86 | 1009.8 |
| 20260509134547 | 23 | 236 | 8.0 | 16.1 | 0.00 | 0.00 | 0.00 | 88 | 1009.7 |
| 20260509133058 | 22 | 217 | 9.7 | 17.7 | 0.00 | 0.00 | 0.00 | 91 | 1009.5 |
| 20260509131546 | 22 | 225 | 8.0 | 16.1 | 0.00 | 0.00 | 0.00 | 93 | 1009.5 |
| 20260509130048 | 21 | 161 | 3.2 | 12.9 | 0.00 | 0.00 | 0.00 | 94 | 1009.7 |
| 20260509124549 | 21 | 0 | 1.6 | 6.4 | 0.00 | 0.00 | 0.00 | 94 | 1009.8 |
| 20260509123047 | 21 | 0 | 0.0 | 4.8 | 0.00 | 0.00 | 0.00 | 94 | 1010.0 |
| 20260509121553 | 21 | 0 | 0.0 | 0.0 | 0.00 | 0.00 | 0.00 | 94 | 1010.2 |
| 20260509120045 | 21 | 0 | 0.0 | 0.0 | 0.00 | 0.00 | 0.00 | 94 | 1010.2 |
| 20260509114540 | 21 | 0 | 0.0 | 0.0 | 0.00 | 0.00 | 0.00 | 94 | 1010.7 |
| 20260509113042 | 21 | 0 | 0.0 | 0.0 | 0.00 | 0.00 | 0.00 | 94 | 1011.0 |
| 20260509111547 | 21 | 0 | 0.0 | 0.0 | 0.00 | 0.00 | 0.00 | 93 | 1011.0 |
| 20260509110049 | 21 | 0 | 0.0 | 0.0 | 0.00 | 0.00 | 0.00 | 93 | 1011.3 |
| 20260509104601 | 21 | 0 | 0.0 | 8.0 | 0.00 | 0.00 | 0.00 | 93 | 1011.5 |
| 20260509103042 | 21 | 0 | 0.0 | 0.0 | 0.00 | 0.00 | 0.00 | 93 | 1011.5 |
| 20260509101540 | 21 | 0 | 0.0 | 3.2 | 0.00 | 0.00 | 0.00 | 93 | 1011.3 |
| 20260509100040 | 21 | 0 | 0.0 | 0.0 | 0.00 | 0.00 | 0.00 | 93 | 1011.1 |
| 20260509094548 | 21 | 0 | 0.0 | 4.8 | 0.00 | 0.00 | 0.00 | 93 | 1010.7 |
| 20260509093048 | 21 | 0 | 0.0 | 4.8 | 0.00 | 0.00 | 0.00 | 93 | 1010.1 |
| 20260509091548 | 21 | 0 | 0.0 | 0.0 | 0.00 | 0.00 | 0.00 | 92 | 1009.6 |
| 20260509090052 | 22 | 0 | 0.0 | 0.0 | 0.00 | 0.00 | 0.00 | 92 | 1009.6 |
| 20260509084553 | 22 | 0 | 0.0 | 0.0 | 0.00 | 0.00 | 0.00 | 91 | 1009.9 |
| 20260509083044 | 22 | 0 | 0.0 | 0.0 | 0.00 | 0.00 | 0.00 | 91 | 1010.3 |
| 20260509081553 | 22 | 0 | 0.0 | 0.0 | 0.00 | 0.00 | 0.00 | 91 | 1010.2 |
| 20260509080047 | 22 | 0 | 0.0 | 0.0 | 0.00 | 0.00 | 0.00 | 91 | 1010.3 |
| 20260509074545 | 22 | 0 | 0.0 | 0.0 | 0.00 | 0.00 | 0.00 | 91 | 1010.4 |
| 20260509073048 | 22 | 0 | 0.0 | 0.0 | 0.00 | 0.00 | 0.00 | 91 | 1010.7 |
| 20260509071549 | 22 | 0 | 0.0 | 0.0 | 0.00 | 0.00 | 0.00 | 91 | 1010.9 |
| 20260509070051 | 22 | 0 | 0.0 | 1.6 | 0.00 | 0.00 | 0.00 | 91 | 1010.9 |
| 20260509064547 | 22 | 0 | 0.0 | 0.0 | 0.00 | 0.00 | 0.00 | 91 | 1010.7 |
| 20260509063104 | 22 | 0 | 0.0 | 0.0 | 0.00 | 0.00 | 0.00 | 91 | 1010.9 |
| 20260509061611 | 22 | 0 | 0.0 | 0.0 | 0.00 | 0.00 | 0.00 | 91 | 1010.9 |
| 20260509060057 | 22 | 155 | 0.0 | 4.8 | 0.00 | 0.00 | 0.00 | 91 | 1010.5 |
| 20260509054547 | 22 | 187 | 3.2 | 11.3 | 0.00 | 0.00 | 0.00 | 91 | 1010.6 |
| 20260509053048 | 22 | 182 | 1.6 | 11.3 | 0.00 | 0.00 | 0.00 | 91 | 1009.7 |
| 20260509051547 | 22 | 162 | 0.0 | 6.4 | 0.00 | 0.00 | 0.00 | 91 | 1009.1 |
| 20260509050049 | 22 | 202 | 1.6 | 6.4 | 0.00 | 0.00 | 0.00 | 90 | 1008.9 |
| 20260509044545 | 22 | 0 | 0.0 | 0.0 | 0.00 | 0.00 | 0.00 | 90 | 1009.2 |
| 20260509043047 | 22 | 0 | 0.0 | 4.8 | 0.00 | 0.00 | 0.00 | 89 | 1009.8 |
| 20260509041548 | 22 | 0 | 1.6 | 6.4 | 0.00 | 0.00 | 0.00 | 89 | 1009.8 |
| 20260509040051 | 22 | 0 | 0.0 | 9.7 | 0.00 | 0.00 | 0.00 | 89 | 1010.0 |
| 20260509034546 | 22 | 180 | 0.0 | 8.0 | 0.00 | 0.00 | 0.00 | 89 | 1009.8 |
| 20260509033047 | 22 | 0 | 0.0 | 11.3 | 0.00 | 0.00 | 0.00 | 89 | 1009.8 |
| 20260509031549 | 22 | 188 | 0.0 | 8.0 | 0.00 | 0.00 | 0.00 | 88 | 1009.3 |
| 20260509030051 | 22 | 207 | 1.6 | 6.4 | 0.00 | 0.00 | 0.00 | 88 | 1009.2 |
| 20260509024541 | 22 | 0 | 0.0 | 3.2 | 0.00 | 0.00 | 0.00 | 88 | 1009.1 |
| 20260509023041 | 22 | 0 | 0.0 | 4.8 | 0.00 | 0.00 | 0.00 | 87 | 1009.1 |
| 20260509021547 | 22 | 0 | 0.0 | 6.4 | 0.00 | 0.00 | 0.00 | 86 | 1008.8 |
| 20260509020054 | 23 | 0 | 0.0 | 3.2 | 0.00 | 0.00 | 0.00 | 85 | 1008.6 |
| 20260509014548 | 23 | 0 | 1.6 | 9.7 | 0.00 | 0.00 | 0.00 | 84 | 1008.5 |
| 20260509013042 | 23 | 0 | 0.0 | 8.0 | 0.00 | 0.00 | 0.00 | 83 | 1008.5 |
| 20260509011548 | 23 | 150 | 0.0 | 11.3 | 0.00 | 0.00 | 0.00 | 82 | 1008.3 |
| 20260509010048 | 23 | 148 | 3.2 | 12.9 | 0.00 | 0.00 | 0.00 | 81 | 1008.4 |
| 20260509004547 | 24 | 146 | 0.0 | 8.0 | 0.00 | 0.00 | 0.00 | 81 | 1008.4 |
| 20260509003045 | 24 | 0 | 0.0 | 8.0 | 0.00 | 0.00 | 0.00 | 80 | 1008.4 |
| 20260509001540 | 24 | 158 | 1.6 | 11.3 | 0.00 | 0.00 | 0.00 | 80 | 1008.3 |
| 20260509000043 | 24 | 0 | 1.6 | 11.3 | 0.00 | 0.00 | 0.00 | 81 | 1008.5 |